Location: *
(2.5500°S, 65.9667°W)
Time: 22:24:31
(UTC+00:00)

SRMSAT - Pass Details

Date: 06 July 2022
Orbit: 848 x 865 km, 20.0° (Epoch: 15 August)

Event Time Altitude Azimuth Distance (km) Brightness Sun altitude
Exits shadow 09:20:46 25° 231° (SW) 1,643 ? -16.6°
Maximum altitude 09:22:46 31° 197° (SSW) 1,448 ? -16.2°
Drops below altitude 10° 09:27:57 10° 136° (SE) 2,466 ? -15.0°
Sets 09:30:48 0° 125° (SE) 3,405 ? -14.3°
